GW6199 Weather Reports


time (UTC)temp
C
wind
direction
speed
KPH
gust
KPH
rain 1hr
cm
rain 24hr
cm
rain mn
cm
humidity
%
barometer
mb
20260509024341 13 42 3.2 4.8 0.00 0.00 0.00 82 1011.4
20260509023838 13 108 1.6 4.8 0.00 0.00 0.00 81 1011.3
20260509023336 15 6 3.2 4.8 0.00 0.00 0.00 79 1011.6
20260509022832 15 356 1.6 6.4 0.00 0.00 0.00 73 1011.3
20260509022330 15 67 1.6 1.6 0.00 0.00 0.00 71 1011.3
20260509021826 15 99 0.0 0.0 0.00 0.00 0.00 68 1011.0
20260509021323 15 107 0.0 0.0 0.00 0.00 0.00 70 1010.9
20260509020821 16 109 0.0 0.0 0.00 0.00 0.00 70 1011.1
20260509020319 15 110 0.0 1.6 0.00 0.00 0.00 69 1010.7
20260509015816 15 112 0.0 0.0 0.00 0.00 0.00 72 1010.8
20260509015314 15 118 0.0 1.6 0.00 0.00 0.00 73 1010.7
20260509014810 15 110 0.0 0.0 0.00 0.00 0.00 74 1010.9
20260509014308 15 101 0.0 0.0 0.00 0.00 0.00 72 1010.7
20260509013804 15 101 0.0 0.0 0.00 0.00 0.00 69 1010.7
20260509013300 15 102 0.0 0.0 0.00 0.00 0.00 69 1010.6
20260509012757 15 103 0.0 1.6 0.00 0.00 0.00 67 1010.7
20260509012254 16 90 0.0 0.0 0.00 0.00 0.00 67 1010.8
20260509011751 16 106 0.0 0.0 0.00 0.00 0.00 67 1010.8
20260509011248 16 124 0.0 1.6 0.00 0.00 0.00 62 1010.7
20260509010746 16 122 0.0 0.0 0.00 0.00 0.00 66 1010.9
20260509010242 17 106 0.0 0.0 0.00 0.00 0.00 62 1011.0
20260509005740 17 105 0.0 1.6 0.00 0.00 0.00 61 1010.9
20260509005238 17 107 0.0 3.2 0.00 0.00 0.00 59 1010.7
20260509004737 17 104 0.0 0.0 0.00 0.00 0.00 56 1010.6
20260509004235 17 109 0.0 1.6 0.00 0.00 0.00 53 1010.7
20260509003733 18 121 0.0 1.6 0.00 0.00 0.00 52 1010.5
20260509003230 18 110 0.0 0.0 0.00 0.00 0.00 52 1010.6
20260509002727 18 118 0.0 3.2 0.00 0.00 0.00 52 1010.4
20260509002225 18 142 0.0 3.2 0.00 0.00 0.00 51 1010.4
20260509001722 18 130 0.0 4.8 0.00 0.00 0.00 51 1010.3
20260509001218 18 197 1.6 3.2 0.00 0.00 0.00 51 1010.4
20260509000716 18 107 0.0 0.0 0.00 0.00 0.00 51 1010.6
20260509000213 18 141 1.6 1.6 0.00 0.00 0.00 50 1010.5
20260508235710 18 98 0.0 1.6 0.00 0.00 0.00 50 1010.6
20260508235206 18 261 1.6 4.8 0.00 0.00 0.00 49 1010.5
20260508234704 18 119 0.0 1.6 0.00 0.00 0.00 50 1010.4
20260508234200 18 132 0.0 1.6 0.00 0.00 0.00 49 1010.5
20260508233700 18 180 3.2 4.8 0.00 0.00 0.00 48 1010.5
20260508233157 18 175 1.6 3.2 0.00 0.00 0.00 49 1010.4
20260508232654 18 124 1.6 6.4 0.00 0.00 0.00 48 1010.3
20260508232150 18 118 1.6 3.2 0.00 0.00 0.00 49 1010.4
20260508231649 18 133 0.0 3.2 0.00 0.00 0.00 48 1010.7
20260508231145 18 193 3.2 4.8 0.00 0.00 0.00 47 1010.6
20260508230642 18 166 1.6 11.3 0.00 0.00 0.00 48 1010.4
20260508230138 19 125 1.6 1.6 0.00 0.00 0.00 48 1010.5
20260508225636 19 129 3.2 3.2 0.00 0.00 0.00 48 1010.3
20260508225132 19 166 3.2 4.8 0.00 0.00 0.00 47 1010.4
20260508224630 19 109 3.2 11.3 0.00 0.00 0.00 46 1010.3
20260508224128 19 115 1.6 3.2 0.00 0.00 0.00 48 1010.3
20260508223625 19 141 1.6 4.8 0.00 0.00 0.00 47 1010.3
20260508223122 20 226 3.2 6.4 0.00 0.00 0.00 47 1010.2
20260508222620 20 114 1.6 6.4 0.00 0.00 0.00 46 1010.3
20260508222116 20 140 3.2 11.3 0.00 0.00 0.00 46 1010.4
20260508221613 20 184 4.8 9.7 0.00 0.00 0.00 45 1010.4
20260508221108 20 197 3.2 4.8 0.00 0.00 0.00 46 1010.3
20260508220605 20 182 4.8 6.4 0.00 0.00 0.00 46 1010.2
20260508215558 20 202 4.8 11.3 0.00 0.00 0.00 46 1010.1
20260508215055 20 180 4.8 9.7 0.00 0.00 0.00 45 1010.2
20260508214553 20 178 6.4 12.9 0.00 0.00 0.00 45 1010.1
20260508214049 20 172 3.2 9.7 0.00 0.00 0.00 45 1010.2
20260508213546 20 129 4.8 12.9 0.00 0.00 0.00 44 1010.4
20260508213042 20 189 1.6 9.7 0.00 0.00 0.00 44 1010.2
20260508212539 20 215 1.6 11.3 0.00 0.00 0.00 45 1010.2
20260508212035 20 238 4.8 6.4 0.00 0.00 0.00 43 1010.4
20260508211531 20 213 3.2 6.4 0.00 0.00 0.00 43 1010.2
20260508211027 20 200 6.4 11.3 0.00 0.00 0.00 41 1010.4
20260508210524 21 92 6.4 6.4 0.00 0.00 0.00 40 1010.5
20260508210022 22 151 4.8 9.7 0.00 0.00 0.00 42 1010.6
20260508205518 21 133 6.4 11.3 0.00 0.00 0.00 42 1010.6
20260508205014 20 151 9.7 14.5 0.00 0.00 0.00 42 1010.9
20260508204512 20 248 9.7 14.5 0.00 0.00 0.00 43 1010.8
20260508204007 20 228 3.2 9.7 0.00 0.00 0.00 45 1010.8
20260508203503 20 180 3.2 6.4 0.00 0.00 0.00 43 1011.1
20260508202959 20 221 6.4 14.5 0.00 0.00 0.00 43 1011.1
20260508202456 20 149 3.2 6.4 0.00 0.00 0.00 43 1011.2
20260508201953 20 187 8.0 11.3 0.00 0.00 0.00 42 1011.3
20260508201450 20 97 1.6 4.8 0.00 0.00 0.00 45 1011.3
20260508200947 20 65 6.4 11.3 0.00 0.00 0.00 43 1011.3
20260508200444 20 189 6.4 9.7 0.00 0.00 0.00 42 1011.4
20260508195938 20 129 1.6 4.8 0.00 0.00 0.00 44 1011.4
20260508195436 20 95 1.6 6.4 0.00 0.00 0.00 45 1011.7
20260508194932 20 92 1.6 3.2 0.00 0.00 0.00 45 1011.6
20260508194429 20 310 3.2 4.8 0.00 0.00 0.00 44 1011.4
20260508193926 20 57 6.4 11.3 0.00 0.00 0.00 43 1011.5
20260508193423 20 185 1.6 6.4 0.00 0.00 0.00 44 1011.7
20260508192919 20 102 3.2 11.3 0.00 0.00 0.00 41 1011.8
20260508192416 21 179 6.4 9.7 0.00 0.00 0.00 41 1011.8
20260508191913 20 216 1.6 3.2 0.00 0.00 0.00 43 1011.7
20260508191411 20 166 1.6 16.1 0.00 0.00 0.00 43 1011.9
20260508190907 21 199 6.4 9.7 0.00 0.00 0.00 41 1011.9
20260508190405 21 119 6.4 14.5 0.00 0.00 0.00 40 1012.0
20260508185901 22 318 4.8 14.5 0.00 0.00 0.00 40 1012.0
20260508185358 22 218 4.8 11.3 0.00 0.00 0.00 40 1012.1
20260508184855 22 170 1.6 4.8 0.00 0.00 0.00 40 1012.2
20260508184353 21 278 4.8 11.3 0.00 0.00 0.00 42 1012.2
20260508183849 21 231 4.8 11.3 0.00 0.00 0.00 42 1012.4
20260508183346 21 158 6.4 16.1 0.00 0.00 0.00 41 1012.5
20260508182842 20 207 6.4 9.7 0.00 0.00 0.00 41 1012.4
20260508182339 21 210 6.4 9.7 0.00 0.00 0.00 40 1012.6
20260508181834 21 196 1.6 6.4 0.00 0.00 0.00 44 1012.8
20260508181331 21 142 11.3 20.9 0.00 0.00 0.00 40 1012.8
20260508180828 21 153 3.2 16.1 0.00 0.00 0.00 42 1012.9
20260508180325 21 223 1.6 9.7 0.00 0.00 0.00 42 1012.9
20260508175821 21 205 3.2 20.9 0.00 0.00 0.00 43 1013.1
20260508175318 21 240 9.7 16.1 0.00 0.00 0.00 39 1013.2
20260508174816 21 163 3.2 12.9 0.00 0.00 0.00 40 1013.1
20260508174313 21 195 1.6 12.9 0.00 0.00 0.00 45 1013.1
20260508173809 21 160 4.8 14.5 0.00 0.00 0.00 40 1013.4
20260508173307 20 340 4.8 9.7 0.00 0.00 0.00 43 1013.5
20260508172802 20 80 4.8 11.3 0.00 0.00 0.00 45 1013.5
20260508172300 20 212 4.8 14.5 0.00 0.00 0.00 44 1013.7
20260508171755 20 138 4.8 14.5 0.00 0.00 0.00 41 1013.8
20260508171252 20 50 6.4 9.7 0.00 0.00 0.00 45 1013.9
20260508170749 20 203 6.4 9.7 0.00 0.00 0.00 45 1013.9
20260508170247 20 120 8.0 14.5 0.00 0.00 0.00 44 1013.9
20260508165744 20 153 1.6 4.8 0.00 0.00 0.00 48 1014.0
20260508165241 20 202 3.2 9.7 0.00 0.00 0.00 45 1014.3
20260508164737 20 199 3.2 6.4 0.00 0.00 0.00 48 1014.3
20260508164234 20 188 6.4 9.7 0.00 0.00 0.00 45 1014.3
20260508163732 20 183 6.4 11.3 0.00 0.00 0.00 44 1014.5
20260508163229 20 149 4.8 9.7 0.00 0.00 0.00 48 1014.7
20260508162725 20 244 3.2 11.3 0.00 0.00 0.00 47 1014.6
20260508162222 20 62 3.2 11.3 0.00 0.00 0.00 48 1014.9
20260508161719 20 178 3.2 9.7 0.00 0.00 0.00 48 1014.7
20260508161216 20 296 6.4 9.7 0.00 0.00 0.00 49 1014.8
20260508160714 20 231 8.0 12.9 0.00 0.00 0.00 47 1014.9
20260508160212 19 148 3.2 6.4 0.00 0.00 0.00 47 1014.9
20260508155708 19 221 6.4 12.9 0.00 0.00 0.00 47 1015.1
20260508155205 19 210 6.4 9.7 0.00 0.00 0.00 49 1015.0
20260508154702 18 190 3.2 9.7 0.00 0.00 0.00 48 1015.2
20260508154159 19 220 4.8 11.3 0.00 0.00 0.00 46 1015.0
20260508153656 19 129 3.2 9.7 0.00 0.00 0.00 48 1015.0
20260508153153 19 228 3.2 4.8 0.00 0.00 0.00 50 1015.1
20260508152649 18 125 3.2 12.9 0.00 0.00 0.00 48 1015.4
20260508152145 18 236 3.2 4.8 0.00 0.00 0.00 50 1015.5
20260508151642 18 110 1.6 4.8 0.00 0.00 0.00 47 1015.3
20260508151138 18 197 1.6 3.2 0.00 0.00 0.00 52 1015.5
20260508150636 17 226 4.8 6.4 0.00 0.00 0.00 49 1015.5
20260508150132 17 100 3.2 11.3 0.00 0.00 0.00 50 1015.5
20260508145628 17 222 3.2 16.1 0.00 0.00 0.00 50 1015.5
20260508145124 17 201 4.8 6.4 0.00 0.00 0.00 50 1015.6
20260508144623 17 246 1.6 6.4 0.00 0.00 0.00 51 1015.7
20260508144120 16 195 1.6 6.4 0.00 0.00 0.00 51 1015.7
20260508143617 16 176 6.4 12.9 0.00 0.00 0.00 50 1015.6
20260508143114 16 196 4.8 11.3 0.00 0.00 0.00 50 1015.6
20260508142610 16 66 3.2 4.8 0.00 0.00 0.00 52 1015.7
20260508142107 16 310 1.6 4.8 0.00 0.00 0.00 51 1015.7
20260508141604 16 78 3.2 9.7 0.00 0.00 0.00 51 1015.9
20260508141101 15 190 6.4 9.7 0.00 0.00 0.00 51 1016.0
20260508140558 15 201 3.2 6.4 0.00 0.00 0.00 52 1015.9
20260508140055 15 310 3.2 4.8 0.00 0.00 0.00 53 1015.9
20260508135550 15 119 3.2 11.3 0.00 0.00 0.00 54 1015.9
20260508135047 15 173 1.6 6.4 0.00 0.00 0.00 54 1016.0
20260508134543 15 144 1.6 3.2 0.00 0.00 0.00 55 1015.8
20260508134041 15 198 3.2 4.8 0.00 0.00 0.00 52 1016.0
20260508133537 14 113 1.6 9.7 0.00 0.00 0.00 53 1015.8
20260508133035 14 189 1.6 6.4 0.00 0.00 0.00 54 1015.9
20260508132533 13 185 4.8 4.8 0.00 0.00 0.00 53 1015.9
20260508132029 13 118 3.2 11.3 0.00 0.00 0.00 54 1015.9
20260508131524 13 88 3.2 11.3 0.00 0.00 0.00 55 1016.0
20260508131021 13 184 1.6 4.8 0.00 0.00 0.00 56 1016.0
20260508130519 12 138 3.2 4.8 0.00 0.00 0.00 56 1015.8
20260508130015 12 74 4.8 6.4 0.00 0.00 0.00 55 1015.8
20260508125510 12 211 1.6 12.9 0.00 0.00 0.00 57 1015.9
20260508125008 12 162 1.6 6.4 0.00 0.00 0.00 56 1015.9
20260508124506 12 198 3.2 4.8 0.00 0.00 0.00 58 1016.0
20260508124003 11 123 1.6 3.2 0.00 0.00 0.00 58 1015.8
20260508123502 11 96 3.2 9.7 0.00 0.00 0.00 58 1015.9
20260508122957 11 209 3.2 11.3 0.00 0.00 0.00 60 1015.8
20260508122455 10 191 6.4 6.4 0.00 0.00 0.00 61 1015.7
20260508121952 10 158 1.6 1.6 0.00 0.00 0.00 63 1015.7
20260508121450 10 155 1.6 9.7 0.00 0.00 0.00 62 1015.6
20260508120948 10 174 1.6 3.2 0.00 0.00 0.00 62 1015.7
20260508120445 10 185 3.2 4.8 0.00 0.00 0.00 62 1015.6
20260508115943 10 273 1.6 4.8 0.00 0.00 0.00 63 1015.8
20260508115440 10 211 3.2 3.2 0.00 0.00 0.00 63 1015.6
20260508114937 9 156 3.2 4.8 0.00 0.00 0.00 64 1015.7
20260508114434 9 203 3.2 4.8 0.00 0.00 0.00 64 1015.6
20260508113930 9 185 1.6 3.2 0.00 0.00 0.00 64 1015.5
20260508113428 9 180 1.6 6.4 0.00 0.00 0.00 65 1015.5
20260508112925 9 131 1.6 4.8 0.00 0.00 0.00 66 1015.2
20260508112422 9 157 1.6 3.2 0.00 0.00 0.00 65 1015.2
20260508111918 8 158 3.2 9.7 0.00 0.00 0.00 64 1015.4
20260508111416 8 94 1.6 3.2 0.00 0.00 0.00 65 1015.3
20260508110913 8 232 3.2 6.4 0.00 0.00 0.00 65 1015.2
20260508110410 9 189 3.2 3.2 0.00 0.00 0.00 65 1015.1
20260508105910 9 129 0.0 3.2 0.00 0.00 0.00 65 1015.1
20260508105406 9 204 3.2 4.8 0.00 0.00 0.00 66 1015.2
20260508104904 9 151 1.6 3.2 0.00 0.00 0.00 64 1015.1
20260508104401 9 182 1.6 3.2 0.00 0.00 0.00 65 1015.1
20260508103858 9 110 0.0 1.6 0.00 0.00 0.00 65 1015.3
20260508103355 9 119 1.6 4.8 0.00 0.00 0.00 63 1015.2
20260508102852 10 134 3.2 4.8 0.00 0.00 0.00 63 1015.2
20260508102350 10 200 3.2 9.7 0.00 0.00 0.00 62 1015.1
20260508101847 9 167 1.6 3.2 0.00 0.00 0.00 63 1015.0
20260508101344 10 158 3.2 4.8 0.00 0.00 0.00 63 1015.4
20260508100842 9 149 3.2 4.8 0.00 0.00 0.00 62 1015.1
20260508100341 9 204 1.6 1.6 0.00 0.00 0.00 63 1015.2
20260508095836 9 147 0.0 1.6 0.00 0.00 0.00 64 1015.3
20260508095334 9 181 1.6 3.2 0.00 0.00 0.00 63 1015.2
20260508094830 9 203 3.2 3.2 0.00 0.00 0.00 63 1015.2
20260508094327 9 125 0.0 1.6 0.00 0.00 0.00 64 1015.3
20260508093824 9 114 0.0 1.6 0.00 0.00 0.00 65 1015.2
20260508093322 8 117 0.0 3.2 0.00 0.00 0.00 65 1015.3
20260508092819 8 133 0.0 3.2 0.00 0.00 0.00 66 1015.3
20260508092317 8 111 0.0 1.6 0.00 0.00 0.00 67 1015.1
20260508091815 8 133 0.0 1.6 0.00 0.00 0.00 67 1015.2
20260508091311 8 113 0.0 3.2 0.00 0.00 0.00 67 1015.3
20260508090809 8 91 0.0 1.6 0.00 0.00 0.00 66 1015.1
20260508090307 8 119 0.0 1.6 0.00 0.00 0.00 67 1015.3
20260508085803 8 111 0.0 0.0 0.00 0.00 0.00 66 1015.3
20260508085300 8 128 1.6 1.6 0.00 0.00 0.00 65 1015.3
20260508084755 8 121 0.0 3.2 0.00 0.00 0.00 65 1015.2
20260508084253 8 130 0.0 1.6 0.00 0.00 0.00 66 1015.1
20260508083751 8 114 0.0 1.6 0.00 0.00 0.00 66 1015.0
20260508083248 8 119 0.0 1.6 0.00 0.00 0.00 65 1015.0
20260508082747 8 150 1.6 3.2 0.00 0.00 0.00 64 1015.0
20260508082246 8 176 1.6 3.2 0.00 0.00 0.00 64 1015.2
20260508081743 8 119 0.0 1.6 0.00 0.00 0.00 65 1015.1
20260508081239 8 151 1.6 1.6 0.00 0.00 0.00 65 1014.9
20260508080736 8 109 0.0 1.6 0.00 0.00 0.00 66 1015.1
20260508080235 8 120 0.0 1.6 0.00 0.00 0.00 66 1015.0
20260508075731 8 109 0.0 0.0 0.00 0.00 0.00 67 1014.9
20260508075228 8 119 0.0 1.6 0.00 0.00 0.00 66 1015.0
20260508074726 8 117 0.0 1.6 0.00 0.00 0.00 66 1015.1
20260508074223 8 112 0.0 1.6 0.00 0.00 0.00 65 1015.0
20260508073719 8 123 0.0 0.0 0.00 0.00 0.00 65 1014.9
20260508073218 8 113 0.0 1.6 0.00 0.00 0.00 66 1015.0
20260508072713 8 107 0.0 1.6 0.00 0.00 0.00 67 1015.0
20260508072210 8 119 0.0 1.6 0.00 0.00 0.00 67 1015.2
20260508071708 8 114 0.0 0.0 0.00 0.00 0.00 66 1015.3
20260508071206 8 122 0.0 1.6 0.00 0.00 0.00 66 1015.2
20260508070703 8 119 0.0 1.6 0.00 0.00 0.00 66 1015.1
20260508070202 8 126 0.0 1.6 0.00 0.00 0.00 64 1015.2
20260508065658 8 113 0.0 1.6 0.00 0.00 0.00 64 1015.2
20260508065156 8 133 1.6 3.2 0.00 0.00 0.00 63 1015.2
20260508064654 8 143 1.6 1.6 0.00 0.00 0.00 63 1015.2
20260508064152 8 190 3.2 3.2 0.00 0.00 0.00 64 1015.4
20260508063649 8 178 1.6 1.6 0.00 0.00 0.00 64 1015.5
20260508063147 8 118 0.0 1.6 0.00 0.00 0.00 65 1015.6
20260508062644 8 112 0.0 1.6 0.00 0.00 0.00 65 1015.7
20260508062140 8 116 0.0 1.6 0.00 0.00 0.00 64 1015.8
20260508061638 9 122 0.0 1.6 0.00 0.00 0.00 64 1015.7
20260508061135 9 127 0.0 4.8 0.00 0.00 0.00 63 1015.9
20260508060632 9 143 1.6 3.2 0.00 0.00 0.00 63 1015.8
20260508060129 9 118 0.0 0.0 0.00 0.00 0.00 63 1015.8
20260508055624 9 156 1.6 4.8 0.00 0.00 0.00 61 1016.0
20260508055122 10 121 0.0 1.6 0.00 0.00 0.00 61 1015.8
20260508054618 9 136 1.6 3.2 0.00 0.00 0.00 61 1015.7
20260508054116 9 116 0.0 3.2 0.00 0.00 0.00 62 1015.7
20260508053612 9 123 0.0 1.6 0.00 0.00 0.00 62 1015.9
20260508053110 9 186 1.6 3.2 0.00 0.00 0.00 61 1015.9
20260508052607 9 128 0.0 1.6 0.00 0.00 0.00 61 1015.9
20260508052104 9 140 1.6 4.8 0.00 0.00 0.00 60 1015.8
20260508051600 10 114 0.0 1.6 0.00 0.00 0.00 60 1015.8
20260508051056 10 116 0.0 1.6 0.00 0.00 0.00 60 1015.8
20260508050552 10 134 0.0 1.6 0.00 0.00 0.00 60 1015.6
20260508050050 10 200 4.8 4.8 0.00 0.00 0.00 58 1015.7
20260508045546 10 104 1.6 3.2 0.00 0.00 0.00 59 1015.6
20260508045044 10 108 0.0 1.6 0.00 0.00 0.00 59 1015.6
20260508044541 10 140 0.0 3.2 0.00 0.00 0.00 58 1015.6
20260508044036 10 201 1.6 3.2 0.00 0.00 0.00 58 1015.7
20260508043533 10 131 1.6 3.2 0.00 0.00 0.00 58 1015.6
20260508043031 10 116 0.0 3.2 0.00 0.00 0.00 59 1015.8
20260508042527 10 180 1.6 3.2 0.00 0.00 0.00 59 1015.7
20260508042025 10 151 1.6 6.4 0.00 0.00 0.00 59 1015.7
20260508041521 9 169 0.0 1.6 0.00 0.00 0.00 62 1015.8
20260508041018 8 121 1.6 1.6 0.00 0.00 0.00 63 1015.7
20260508040515 9 117 0.0 0.0 0.00 0.00 0.00 65 1015.6
20260508040012 8 137 1.6 1.6 0.00 0.00 0.00 65 1015.5
20260508035509 8 154 1.6 1.6 0.00 0.00 0.00 66 1015.6
20260508035006 8 112 0.0 0.0 0.00 0.00 0.00 68 1015.5
20260508034503 7 123 0.0 1.6 0.00 0.00 0.00 70 1015.7
20260508034000 7 112 0.0 0.0 0.00 0.00 0.00 72 1015.7
20260508033458 7 113 0.0 0.0 0.00 0.00 0.00 74 1015.8
20260508032955 7 113 0.0 0.0 0.00 0.00 0.00 75 1015.7
20260508032452 7 105 0.0 0.0 0.00 0.00 0.00 77 1015.8
20260508031949 7 105 0.0 1.6 0.00 0.00 0.00 76 1015.6
20260508031447 7 103 0.0 0.0 0.00 0.00 0.00 75 1015.7
20260508030942 7 103 0.0 0.0 0.00 0.00 0.00 78 1015.6
20260508030439 7 103 0.0 0.0 0.00 0.00 0.00 79 1015.6
20260508025937 7 103 0.0 0.0 0.00 0.00 0.00 79 1015.6
20260508025433 7 103 0.0 0.0 0.00 0.00 0.00 80 1015.7
20260508024930 7 103 0.0 0.0 0.00 0.00 0.00 81 1015.4